function deleteAllCookies() { var cookies = document.cookie.split(";"); for (var i = 0; i < cookies.length; i++) { var cookie = cookies[i]; var eqPos = cookie.indexOf("="); var name = eqPos > -1 ? cookie.substr(0, eqPos) : cookie; document.cookie = name + "=;expires=Thu, 01 Jan 1970 00:00:00 GMT"; } }

Jackpot

Texas Poker Multi Jackpot System

Kini Telah hadir Jackpot SUPER ROYAL FLUSH

Kini Telah hadir Jackpot 2000 (khusus table VIP keatas).

Ikutilah global jackpot yang tersedia di system kami, dengan system jackpot terbaru dan pertama di indonesia, anda dapat membeli jackpot dengan harga 100 rupiah saja dan menangkan hadiahnya hingga puluhan juta rupiah.

Jackpot bukanlah suatu keharusan untuk dibeli, namun kami memberikan suatu fitur tambahan untuk member tercinta dari www.lagapoker.net.

Terdapat tiga pilihan harga jackpot yang bisa anda beli yaitu :100,500,1000 dan 2000(khusus table VIP Keatas) rupiah.

Hadiah dari Multi jackpot system www.lagapoker.net

  1. full house x 10 harga jackpot yang anda beli.
      (contoh:anda membeli 1000 maka:1000 X10 = 10.000)
  2. four of kind x 250 harga jackpot yang anda beli
      (contoh:anda membeli 1000 maka:1000 X250 = 250.000)
  3. Straight flush x 1200
      (contoh:anda membeli 1000 maka:1000 X1200 = 1.200.000)
  4. Royal flush x 10000 harga jackpot yang anda beli
      (contoh:anda membeli 1000 maka:1000 X10000 = 10.000.000)
  5. SUPER ROYAL FLUSH x 30000 harga jackpot yang anda beli
      (contoh:anda membeli 1000 maka:1000 X30000 = 30.000.000)

Kondisi kartu

  1. full house adalah kondisi kartu dimana kartu anda dan kartu tengah dengan total 7 kartu bisa mendapatkan nilai 5 kartu dengan kombinasi 1 tris(three of kind) dan 1 pair, contoh 3 kartu 10 dan 2 kartu 5
  2. Four of kind adalah kondisi kartu dimana kartu anda dan kartu tengah dengan total 7 kartu bisa mendapatkan nilai 5 kartu dengan kombinasi 4 kartu yang sama jumlah dan 1 kartu apapun juga contoh anda mendapatkan 4 buah kartu angka 3 dan 1 kartu apapun.
  3. Staright flush adalah kondisi kartu dimana kartu anda dan kartu tengah dengan total 7 kartu bisa mendapatkan nilai 5 kartu dengan kombinasi seri / staright dengan kembang yang sama contoh : urutan kartu dari angka 5, 6, 7, 8 , 9 10 dengan kembang yg sama misalnya as hati
  4. Royal flush adalah kondisi kartu dimana kartu anda dan kartu tengah dengan total 7 kartu bisa mendapatkan nilai 5 kartu dengan kombinasi seri / staright dengan kembang yang sama tetapi kartu tersebut haruslah dimulai dari 10. contoh 10, Queen, Jack, King dan aces dengan kembang yang sama
  5. Super Royal flush adalah kondisi kartu dimana Kedua kartu anda digabung dengan 3 kartu pertama meja haruslah royal flush. contoh kartu anda 10,Queen kembang sama dan 3 kartu pertama meja adalah Jack, King dan aces dengan kembang yang sama

Demikian adalah penjelasan dari Multi Jackpot www.lagapoker.net terima kasih dan selamat bermain salam hoki dari kami

Texas Poker Jackpot Winner

TOP SUPER ROYAL FLUSH
No.TanggalNamaPriceWin
123/09 00:01ANTY69Super Royal flush6,000,000
222/09 23:57ACUY456Super Royal flush6,000,000
322/09 22:37HEBOH_9Super Royal flush6,000,000
422/09 21:03SAMSUDIN99Super Royal flush6,000,000
522/09 19:41A4627HGSuper Royal flush3,000,000
TOP ROYAL FLUSH
No.TanggalNamaPriceWin
123/09 10:47U9URoyal flush2,000,000
223/09 10:41MUISKINGRoyal flush1,000,000
323/09 10:31KACIO88Royal flush2,000,000
423/09 10:05JEGANG03Royal flush2,000,000
523/09 09:51WALUYO02Royal flush2,000,000
TOP STRAIGHT FLUSH
No.TanggalNamaPriceWin
123/09 11:06KUNCLANG67Straight Flush1,200,000
223/09 11:02WULANERTStraight Flush600,000
323/09 11:00M4SSU475Straight Flush1,200,000
423/09 11:00WEDUS123Straight Flush1,200,000
523/09 10:58BELAGU801Straight Flush120,000
LATEST JACKPOT
No.TanggalNamaPriceWin
123/09 11:07ESSE27Full House2,000
223/09 11:07MEGA01Full House10,000
323/09 11:07F622B7A8Full House1,000
423/09 11:07IC0LE399Full House1,000
523/09 11:07TATA_OKI13Full House5,000
623/09 11:07KANJUT25Full House5,000
723/09 11:07NSR9Full House2,000
823/09 11:07AMBO09Full House5,000
923/09 11:07SNIIPER39Full House1,000
1023/09 11:07D3D3K_0KFull House1,000
1123/09 11:07IZ245224Full House2,000
1223/09 11:07R33AKSIFour Of A Kind50,000
1323/09 11:07OPO14Full House2,000
1423/09 11:07ALAMS1234Full House5,000
1523/09 11:07DEDI280Full House2,000
1623/09 11:07HASANI85Full House2,000
1723/09 11:07KAKUKAKUFull House10,000
1823/09 11:07ANETFull House10,000
1923/09 11:07MATISEDOPFull House10,000
2023/09 11:07K1N9AZZAMFull House10,000
2123/09 11:07GENDON19Full House2,000
2223/09 11:07BUTATULIFull House5,000
2323/09 11:07ALBUS234Four Of A Kind500,000
2423/09 11:07ZIDANE18Full House5,000
2523/09 11:07COUPET45Full House5,000
2623/09 11:07FCF910A1Full House2,000
2723/09 11:07WAHDANIAFull House2,000
2823/09 11:07OVER14Full House2,000
2923/09 11:07HOKAGE_PUSFull House1,000
3023/09 11:07TOLOLBOSFull House2,000
3123/09 11:07DVU4USSOZMFull House5,000
3223/09 11:07POPOK321Full House2,000
3323/09 11:07DA4D09A1Full House1,000
3423/09 11:07VE8XHR4JGZFull House5,000
3523/09 11:07MONYET77Full House5,000
3623/09 11:07SUJARWO69Full House2,000
3723/09 11:07MAW999Full House2,000
3823/09 11:07THLIVZMY6TFull House2,000
3923/09 11:07AATAWAW123Full House2,000
4023/09 11:07ATANTRISTAFull House2,000
4123/09 11:07BENIAJOFull House10,000
4223/09 11:07SANEHOL111Full House2,000
4323/09 11:07NOM0J9U519Full House5,000
4423/09 11:07ANTANKFull House10,000
4523/09 11:07AN4LYNFull House2,000
4623/09 11:07ABRAR88Full House2,000
4723/09 11:07H0KIIIYEFull House5,000
4823/09 11:07EDAY777Four Of A Kind50,000
4923/09 11:07JOSE_403Four Of A Kind500,000
5023/09 11:07PILATXX27Full House20,000

Domino Multi Jackpot System

Ikutilah global jackpot yang tersedia di system kami, dengan system jackpot terbaru dan pertama di indonesia, anda dapat membeli jackpot dengan harga 100 rupiah saja dan menangkan hadiahnya hingga puluhan juta rupiah.

Jackpot bukanlah suatu keharusan untuk dibeli, namun kami memberikan suatu fitur tambahan untuk member tercinta dari www.lagapoker.net.

Terdapat tiga pilihan harga jackpot yang bisa anda beli yaitu :100,500 dan 1000 rupiah.

Hadiah dari Multi jackpot system www.lagapoker.net

  1. Murni Kecil x 50 harga jackpot yang anda beli.
      (contoh:anda membeli 1000 maka:1000 X 50 = 50.000)
  2. Murni Besar x 50 harga jackpot yang anda beli
      (contoh:anda membeli 1000 maka:1000 X 50 = 50.000)
  3. BALAK x 100 harga jackpot yang anda beli
      (contoh:anda membeli 1000 maka:1000 X 100 = 100.000)
  4. ENAM DEWA x 6666 harga jackpot yang anda beli
      (contoh:anda membeli 1000 maka:1000 X 6666 = 6.666.000)

Demikian adalah penjelasan dari Multi Jackpot www.lagapoker.net terima kasih dan selamat bermain salam hoki dari kami

Domino Jackpot Winner

TOP ENAM DEWA
No.TanggalNamaPriceWin
123/09 10:39LAMPUIDmurni enam6,666,000
223/09 09:52TINTAMAS88murni enam3,333,000
323/09 07:30LUCKYPANDAmurni enam6,666,000
423/09 07:24DN4DJUST20murni enam3,333,000
523/09 06:35LAPES88murni enam3,333,000
TOP BALAK
No.TanggalNamaPriceWin
123/09 11:05ILOQ7O7GSTbalak100,000
223/09 11:01RABI0999balak50,000
323/09 11:01RISHOKYbalak50,000
423/09 11:00ABC122333balak50,000
523/09 11:00C20IRUL455balak50,000
LATEST JACKPOT
No.TanggalNamaPriceWin
123/09 11:07VH3Ylucky9950,000
223/09 11:07AP1418murni besar5,000
323/09 11:06SIWAQ2murni besar25,000
423/09 11:06AB2466KLlucky992,500
523/09 11:06MASBERTO08murni besar25,000
623/09 11:05ILOQ7O7GSTbalak100,000
723/09 11:05MANYAR99lucky9925,000
823/09 11:05LUTRAS99Bmurni besar25,000
923/09 11:05AGIL90Rmurni kecil25,000
1023/09 11:04KINOY83murni kecil50,000
1123/09 11:03AL_21murni besar5,000
1223/09 11:01RABI0999balak50,000
1323/09 11:01RISHOKYbalak50,000
1423/09 11:00ABC122333balak50,000
1523/09 11:00RIYAN_181lucky9925,000
1623/09 11:00TEMPE444murni besar25,000
1723/09 11:00C20IRUL455balak50,000
1823/09 11:00ONOY9090murni kecil50,000
1923/09 10:59RABI0999murni besar25,000
2023/09 10:58BUTO_PINKmurni besar25,000
2123/09 10:58AAE465DEmurni kecil5,000
2223/09 10:58BEW666balak10,000
2323/09 10:58IDAKOmurni besar5,000
2423/09 10:57KOMBILIbalak100,000
2523/09 10:57YANTO971murni besar50,000
2623/09 10:56CMD95257murni besar50,000
2723/09 10:56OLALAH09balak100,000
2823/09 10:56IYAKENAmurni kecil50,000
2923/09 10:56JABARUNlucky9910,000
3023/09 10:56CAHAYA1212balak50,000
3123/09 10:55A95BA419murni kecil5,000
3223/09 10:54EKYSET867murni kecil25,000
3323/09 10:54HARRYPOT_murni kecil5,000
3423/09 10:54H1UOmurni kecil5,000
3523/09 10:54MABES188murni kecil50,000
3623/09 10:54CARDO850murni besar50,000
3723/09 10:53ALFAMARTSmurni besar50,000
3823/09 10:53MODALBINImurni besar50,000
3923/09 10:53MAKKARAENGmurni besar25,000
4023/09 10:52B155A6D0murni besar5,000
4123/09 10:52KINOY83balak100,000
4223/09 10:52AZIEmurni besar25,000
4323/09 10:52AIS72murni besar25,000
4423/09 10:51LICSmurni besar5,000
4523/09 10:51NNTSU19lucky9950,000
4623/09 10:51HANTU067murni kecil25,000
4723/09 10:51GURUINDmurni kecil5,000
4823/09 10:50SURIMAN87lucky9925,000
4923/09 10:50KARABAS2balak100,000
5023/09 10:49MACANKIPmurni besar50,000

Ceme Multi Jackpot System

Jackpot dilihat dari gabungan kartu pemain dengan kartu bandar. Bandar harus membeli jackpot sebanyak jumlah player yang sedang duduk. Sebagai contoh bila terdapat 3 pemain duduk bermain, dan bandar memutuskan untuk membeli jackpot Rp 1.000, maka pada periode tersebut bandar akan membeli jackpot sebanyak 3xRp1.000 = Rp3.000.

Jackpot bukanlah suatu keharusan untuk dibeli, namun kami memberikan suatu fitur tambahan untuk member tercinta dari www.lagapoker.net.

Terdapat tiga pilihan harga jackpot yang bisa anda beli yaitu :100,500 dan 1000 rupiah.

Hadiah dari Multi jackpot system www.lagapoker.net

  1. Murni Kecil x 50 harga jackpot yang anda beli.
      (contoh:anda membeli 1000 maka:1000 X 50 = 50.000)
  2. Murni Besar x 50 harga jackpot yang anda beli
      (contoh:anda membeli 1000 maka:1000 X 50 = 50.000)
  3. BALAK x 200 harga jackpot yang anda beli
      (contoh:anda membeli 1000 maka:1000 X 200 = 200.000)
  4. ENAM DEWA x 6666 harga jackpot yang anda beli
      (contoh:anda membeli 1000 maka:1000 X 6666 = 6.666.000)

Demikian adalah penjelasan dari Multi Jackpot www.lagapoker.net terima kasih dan selamat bermain salam hoki dari kami

Ceme Jackpot Winner

TOP ENAM DEWA
No.TanggalNamaPriceWin
123/09 11:02NITHANTIKAmurni enam6,666,000
223/09 10:29CHJ4YGOSORmurni enam6,666,000
323/09 10:16JECQIUmurni enam6,666,000
423/09 10:14TANAKBIDmurni enam6,666,000
523/09 09:45IGAN93106murni enam3,333,000
TOP BALAK
No.TanggalNamaPriceWin
123/09 11:07F435balak200,000
223/09 11:07AJ4T99QIUbalak200,000
323/09 11:07UMAKAHA14balak200,000
423/09 11:07QIQIALIbalak200,000
523/09 11:07ALDIPRA12balak20,000
LATEST JACKPOT
No.TanggalNamaPriceWin
123/09 11:07F435balak200,000
223/09 11:07AJ4T99QIUbalak200,000
323/09 11:07WEITHINGmurni kecil50,000
423/09 11:07DM777111murni besar50,000
523/09 11:07GESEK_95murni besar5,000
623/09 11:07UMAKAHA14balak200,000
723/09 11:07LINDA_1234murni kecil50,000
823/09 11:07ENKKOHmurni kecil50,000
923/09 11:07SANQUA99murni kecil50,000
1023/09 11:07GGNNmurni kecil50,000
1123/09 11:07KUPU2211murni kecil50,000
1223/09 11:07SMDWmurni kecil50,000
1323/09 11:07ASU33murni besar50,000
1423/09 11:07QIQIALIbalak200,000
1523/09 11:07ALDIPRA12balak20,000
1623/09 11:07ALFIZARbalak200,000
1723/09 11:07TAMPARAN86murni kecil50,000
1823/09 11:07BJU00murni kecil50,000
1923/09 11:07KUNAR202murni besar50,000
2023/09 11:07ATHYAmurni kecil25,000
2123/09 11:07JUJUR7murni kecil5,000
2223/09 11:07B62268709murni besar50,000
2323/09 11:07KIUKK152murni besar5,000
2423/09 11:07B62268709murni besar50,000
2523/09 11:07RANDEK88murni besar50,000
2623/09 11:06WIN343murni besar50,000
2723/09 11:06JERRICK21murni besar50,000
2823/09 11:06RECYMIMImurni besar25,000
2923/09 11:06TISSYAmurni besar50,000
3023/09 11:06KIPODOLAmurni besar50,000
3123/09 11:06LEMKAmurni kecil50,000
3223/09 11:06TRM234balak20,000
3323/09 11:06BAGAS351balak200,000
3423/09 11:06AZKA7777murni kecil50,000
3523/09 11:06KINGLIUBEImurni kecil25,000
3623/09 11:06BEN0Ybalak200,000
3723/09 11:06TANAKBIDbalak200,000
3823/09 11:06W4LET11balak20,000
3923/09 11:06QIEEEEmurni besar50,000
4023/09 11:06BBEK29balak20,000
4123/09 11:06DENIST1balak200,000
4223/09 11:06KODIR63balak200,000
4323/09 11:06JOKO234murni kecil50,000
4423/09 11:06R0H4F9185Bmurni kecil5,000
4523/09 11:06KUKUMmurni besar50,000
4623/09 11:05DIKA23murni kecil50,000
4723/09 11:05NUBPLERmurni kecil5,000
4823/09 11:05MEIFAImurni kecil50,000
4923/09 11:05BG15JTmurni besar25,000
5023/09 11:05ELANG888murni besar25,000